This is the latest recevied weather packets stored in our database for station/object W8DRH-13. If no packets are shown the sender has not sent any weather packets the latest 10 day(s).
| Time | Temp. | Humidity | Pressure | Rain* | Wind** | Luminosity | Snow |
|---|---|---|---|---|---|---|---|
| 1777420609 | 16.11° C | 79% | 1010.6 hPa | 0 mm | - | 17 W/m² | - |
| 1777420306 | 16.11° C | 78% | 1010.5 hPa | 0 mm | - | 24 W/m² | - |
| 1777420001 | 16.11° C | 78% | 1010.5 hPa | 0 mm | - | 26 W/m² | - |
| 1777419698 | 16.67° C | 78% | 1010.5 hPa | 0 mm | - | 30 W/m² | - |
| 1777419396 | 16.67° C | 77% | 1010.7 hPa | 0 mm | - | 31 W/m² | - |
| 1777419090 | 16.67° C | 77% | 1010.6 hPa | 0 mm | - | 35 W/m² | - |
| 1777418789 | 17.22° C | 76% | 1010.9 hPa | 0 mm | - | 51 W/m² | - |
| 1777418487 | 17.78° C | 76% | 1011 hPa | 0 mm | - | 60 W/m² | - |
| 1777418182 | 17.78° C | 75% | 1011 hPa | 0 mm | - | 75 W/m² | - |
| 1777417878 | 17.78° C | 74% | 1010.8 hPa | 0 mm | - | 103 W/m² | - |
| 1777417575 | 17.78° C | 74% | 1010.6 hPa | 0 mm | - | 115 W/m² | - |
| 1777417270 | 17.78° C | 74% | 1010.8 hPa | 0 mm | - | 131 W/m² | - |
| 1777416966 | 18.33° C | 74% | 1010.7 hPa | 0 mm | - | 142 W/m² | - |
| 1777416661 | 18.33° C | 74% | 1011 hPa | 0 mm | - | 161 W/m² | - |
| 1777416358 | 18.33° C | 74% | 1011 hPa | 0 mm | - | 181 W/m² | - |
| 1777416057 | 18.33° C | 73% | 1010.9 hPa | 0 mm | - | 193 W/m² | - |
| 1777415752 | 18.33° C | 73% | 1011 hPa | 0 mm | - | 201 W/m² | - |
| 1777415449 | 18.89° C | 73% | 1011 hPa | 0 mm | - | 219 W/m² | - |
| 1777415144 | 18.89° C | 72% | 1011.4 hPa | 0 mm | - | 228 W/m² | - |
| 1777414839 | 18.89° C | 71% | 1011.3 hPa | 0 mm | - | 148 W/m² | - |
| 1777414534 | 18.33° C | 72% | 1011.4 hPa | 0 mm | - | 329 W/m² | - |
| 1777414234 | 18.89° C | 72% | 1011.3 hPa | 0 mm | - | 183 W/m² | - |
| 1777413929 | 19.44° C | 72% | 1010.8 hPa | 0 mm | - | 304 W/m² | - |
| 1777413624 | 18.89° C | 71% | 1010.6 hPa | 0 mm | - | 302 W/m² | - |
| 1777413321 | 19.44° C | 70% | 1010.7 hPa | 0 mm | - | 316 W/m² | - |
* Rain latest hour (hover to see other rain measurements)
** Current wind speed in m/s (hover to see current wind gust speed)